Flag Weather past 2 weeks in Mount Isa, Queensland, Australia

Now
82 °F

Passing clouds.


Feels Like: 85 °F
Forecast: 73 / 96 °F
Wind: 9 mph from North

Location: Mount Isa Amo

Current Time: Nov 28, 2014 at 11:19:54 PM

Latest Report: Nov 28, 2014 at 11:00 PM


Visibility: N/A

Pressure: 29.83 "Hg

Humidity: 58%

Dew point: 66 °F

Location of Mount IsaLocation

Historic Weather in Mount Isa — Graph

°F

Mount Isa temperature yesterday

Maximum temperature yesterday: 100 °F (at 2:30 PM)
Minimum temperature yesterday: 77 °F (at 5:00 AM)
Average temperature yesterday: 88 °F

Past Weeks' High & Low Weather Summary

 TemperatureHumidityPressure
High109 °F (Nov 20, 3:00 PM)100% (Nov 16, 6:30 PM)30.01 "Hg (Nov 16, 6:30 PM)
Low66 °F (Nov 15, 4:00 AM)6% (Nov 18, 9:00 AM)29.74 "Hg (Nov 20, 3:30 PM)
Average89 °F34%29.86 "Hg
* Reported Nov 13 10:00 PM — Nov 28 10:00 PM, Mount Isa, Weather by CustomWeather, © 2014

Note: Actual official high and low records may vary slightly from our data, if they occured in-between our weather recording intervals... More about our weather records

Advertising

Mount Isa weather history for previous 24 hours

 ConditionsComfort  
Time TempWeatherWind HumidityBarometerVisibility
10:00 PM
Nov 28
84 °FPassing clouds.10 mph55%29.83 "HgN/A
9:30 PM84 °FPassing clouds.8 mph51%29.83 "HgN/A
9:00 PM86 °FPassing clouds.8 mph46%29.83 "HgN/A
8:30 PM84 °FPassing clouds.6 mph51%29.80 "HgN/A
8:00 PM84 °FClear.8 mph51%29.80 "HgN/A
7:30 PM86 °FClear.8 mph46%29.80 "HgN/A
7:00 PM86 °FSunny.9 mph46%29.80 "HgN/A
6:30 PM86 °FScattered clouds.6 mph52%29.77 "HgN/A
6:00 PM88 °FSunny.9 mph46%29.77 "HgN/A
5:30 PM88 °FSunny.1 mph46%29.77 "HgN/A
5:00 PM84 °FBroken clouds.8 mph62%29.77 "HgN/A
4:30 PM88 °FScattered clouds.14 mph46%29.77 "HgN/A
4:00 PM91 °FBroken clouds.17 mph36%29.77 "HgN/A
3:30 PM97 °FScattered clouds.10 mph27%29.74 "HgN/A
3:00 PM97 °FPartly sunny.10 mph27%29.74 "HgN/A
2:30 PM97 °FSunny.6 mph27%29.77 "HgN/A
2:00 PM97 °FPartly sunny.6 mph27%29.77 "HgN/A
1:00 PM97 °FScattered clouds.6 mph28%29.80 "HgN/A
12:30 PM95 °FSunny.7 mph30%29.83 "HgN/A
12:00 PM95 °FSunny.8 mph30%29.83 "HgN/A
11:30 AM95 °FSunny.12 mph30%29.86 "HgN/A
11:00 AM95 °FSunny.10 mph30%29.86 "HgN/A
10:30 AM93 °FSunny.12 mph32%29.86 "HgN/A
10:00 AM90 °FSunny.9 mph38%29.89 "HgN/A
9:30 AM88 °FSunny.7 mph40%29.89 "HgN/A
9:00 AM86 °FSunny.6 mph46%29.89 "HgN/A
8:30 AM84 °FSunny.6 mph51%29.89 "HgN/A
8:00 AM82 °FSunny.5 mph55%29.89 "HgN/A
7:30 AM79 °FSunny.No wind65%29.86 "HgN/A
7:00 AM77 °FSunny.No wind74%29.89 "HgN/A
6:30 AM75 °FSunny.1 mph78%29.86 "HgN/A
6:00 AM75 °FPartly sunny.5 mph78%29.86 "HgN/A
5:30 AM75 °FClear.2 mph74%29.86 "HgN/A
5:00 AM75 °FClear.5 mph74%29.83 "HgN/A
4:30 AM77 °FClear.No wind74%29.83 "HgN/A
4:00 AM79 °FClear.No wind70%29.83 "HgN/A
3:30 AM81 °FPassing clouds.5 mph62%29.83 "HgN/A
3:00 AM81 °FPassing clouds.6 mph62%29.83 "HgN/A
2:30 AM81 °FClear.7 mph62%29.86 "HgN/A
2:00 AM81 °FClear.7 mph58%29.86 "HgN/A
1:30 AM82 °FClear.8 mph55%29.86 "HgN/A
1:00 AM82 °FPassing clouds.8 mph55%29.89 "HgN/A
12:30 AM81 °FPassing clouds.6 mph62%29.89 "HgN/A
12:00 AM81 °FPassing clouds.7 mph58%29.89 "HgN/A
11:30 PM
Nov 27
79 °FPassing clouds.9 mph70%29.89 "HgN/A
11:00 PM81 °FPartly cloudy.10 mph62%29.92 "HgN/A
Weather by CustomWeather, © 2014

See weather overviewHow to use our weather pages